Theta_e
304 302 301 312 327 334 337 338 336 334 333 332 332 331 331 332 332 332 331 333 331 330 329 327 328 329 328 327 326 326 325 324
303 310 309 302 303 302 327 335 337 336 335 332 332 331 332 333 332 333 332 332 331 330 329 326 329 329 327 326 327 324 323 324
306 305 304 303 303 305 308 324 334 336 336 335 333 333 334 334 334 333 333 333 331 331 330 327 328 328 328 327 326 323 324 324
301 300 300 299 299 300 304 308 326 335 337 336 329 329 326 328 328 330 332 333 332 331 330 329 328 329 328 327 327 325 321 323
294 295 297 296 296 299 302 306 311 324 334 333 331 330 329 331 331 332 332 333 333 331 329 328 329 329 329 328 328 327 324 319
291 292 294 296 296 297 300 306 309 312 316 331 329 329 329 325 327 328 331 328 329 330 328 327 328 328 328 326 326 326 325 323
292 293 294 294 296 297 299 302 305 308 312 314 320 328 323 323 324 326 327 327 327 327 327 326 326 327 327 327 326 325 323 323
291 291 292 294 294 295 298 299 301 303 306 308 311 315 321 325 325 327 325 325 326 326 327 327 327 327 327 327 325 323 323 322
291 291 292 292 293 294 295 296 298 299 302 303 307 310 316 322 328 326 326 326 326 327 328 328 328 326 325 324 323 323 323 322
289 291 291 292 292 293 294 295 296 297 298 301 304 307 311 317 324 326 326 325 323 324 327 327 326 325 323 322 323 321 320 320
289 290 290 291 292 292 293 294 294 295 297 298 301 303 306 309 318 327 324 324 324 325 325 326 325 323 322 322 321 320 319 318
288 289 290 291 291 291 291 291 292 293 295 296 298 300 302 306 319 325 325 322 323 323 324 324 324 322 321 321 320 318 317 316
286 287 288 288 289 290 290 290 290 292 294 295 296 297 299 301 304 311 323 322 322 321 322 324 323 321 321 319 317 317 316 315
285 286 286 287 287 288 288 289 289 290 291 292 293 294 295 297 299 303 314 322 322 322 323 323 322 321 319 319 318 317 316 315
284 283 284 286 287 287 287 287 288 289 290 289 290 292 293 294 296 297 299 304 320 321 322 323 322 321 320 319 318 316 315 316
282 282 283 284 285 286 286 286 287 288 288 288 288 290 292 292 294 295 295 295 297 300 320 321 322 321 320 319 318 317 317 316
280 281 282 282 284 285 284 284 285 286 285 286 288 289 289 290 290 292 292 293 293 293 294 300 308 299 294 299 312 317 317 317
278 279 280 281 282 284 284 283 284 283 283 284 285 286 287 288 288 289 289 289 290 290 290 290 290 291 290 297 297 318 317 317
278 278 278 280 282 283 285 283 282 282 281 282 283 284 284 286 286 286 287 288 287 287 288 288 288 289 289 291 294 307 301 294
Wind_Speed
16 12 12 12 14 16 16 16 16 15 8 6 6 7 7 7 8 9 10 8 10 8 6 8 8 7 6 6 7 6 4 5
3 8 9 4 8 7 4 11 14 11 11 10 10 12 10 9 8 10 11 10 10 9 7 7 8 9 8 10 6 7 4 6
9 9 10 11 9 9 7 6 8 11 10 10 6 8 7 7 7 8 9 12 12 11 11 9 10 8 9 10 8 4 4 7
10 12 11 9 12 12 12 10 6 11 13 7 3 5 3 4 5 8 12 14 14 14 13 10 10 9 8 9 10 9 6 6
13 13 9 10 11 10 10 11 9 3 9 10 11 8 8 7 8 9 10 14 17 15 13 12 12 10 10 9 9 9 7 6
14 14 13 15 12 11 9 11 9 9 8 2 9 8 6 3 5 10 9 5 7 10 11 11 11 9 9 9 10 9 8 6
15 14 14 14 12 10 11 12 12 10 10 9 5 8 6 6 5 8 7 8 6 8 11 12 12 11 11 10 10 10 8 7
15 17 15 15 15 15 13 12 12 13 11 9 8 7 6 10 10 8 9 7 6 8 9 11 10 12 11 10 10 10 11 10
16 16 14 14 15 15 15 13 12 12 13 12 9 8 5 7 9 7 9 11 12 15 14 14 13 12 11 11 9 10 10 9
16 16 14 13 14 15 14 14 14 14 13 10 10 10 10 10 12 5 9 8 6 6 11 14 14 13 13 13 10 11 10 9
14 14 15 13 14 13 15 15 15 15 14 12 10 11 12 13 11 11 10 8 6 9 13 15 14 13 13 13 10 10 11 8
12 13 13 14 14 15 16 16 16 17 15 14 14 13 14 13 9 12 9 7 11 12 14 14 15 15 13 12 12 12 12 10
14 14 18 17 16 17 19 18 17 15 15 15 14 14 15 13 13 15 6 8 9 12 13 13 13 13 13 14 13 12 13 12
13 14 14 16 16 17 17 18 18 17 17 16 16 17 16 16 15 15 13 6 8 9 10 12 13 13 13 14 13 13 13 12
16 18 17 18 19 20 19 18 18 17 17 17 18 18 18 16 15 14 14 15 5 8 9 11 11 12 13 12 11 11 10 10
18 17 17 16 17 18 17 16 17 17 16 18 18 16 16 17 16 16 15 14 13 16 7 9 9 9 9 12 12 11 12 11
18 17 18 18 18 16 17 17 16 16 16 16 16 17 17 18 17 17 16 15 15 16 16 17 11 7 13 4 11 11 11 11
16 16 16 17 17 15 15 16 15 16 16 16 17 16 16 17 17 17 19 18 16 15 16 16 15 14 23 8 2 8 8 9
14 13 14 14 14 14 12 16 16 16 17 17 17 16 16 16 16 17 17 15 16 14 15 14 13 13 23 21 11 2 6 9
Wind_Direction
247 226 219 229 208 201 196 193 190 192 184 176 178 173 192 180 189 189 179 186 184 178 175 168 169 180 181 177 182 175 167 188
20 55 42 51 61 334 256 201 197 178 183 186 193 204 190 193 193 193 177 178 180 181 182 173 178 192 187 194 180 177 167 169
58 50 42 46 23 11 349 245 185 191 196 204 199 193 202 200 186 188 182 177 179 182 181 185 188 188 186 187 177 153 173 170
49 41 30 41 30 2 349 325 253 200 196 178 87 98 94 141 180 187 199 192 185 184 182 181 185 192 192 187 183 175 174 189
47 28 0 43 24 5 351 343 3 344 186 172 179 197 196 210 203 208 207 207 186 182 181 183 185 193 190 186 185 186 161 189
27 26 5 30 22 353 356 352 6 11 33 162 176 195 206 177 182 191 190 200 195 179 178 178 188 196 201 185 181 188 194 179
31 30 18 22 13 2 23 2 13 11 33 26 19 204 184 185 187 191 187 174 185 192 185 184 186 188 193 198 195 192 195 195
30 26 18 19 11 12 25 5 5 9 19 18 9 352 309 214 196 190 171 176 175 182 222 205 192 193 193 188 198 203 206 203
34 30 24 18 14 15 18 11 12 9 8 5 357 340 315 293 228 192 192 190 189 174 199 211 207 193 186 186 192 202 197 198
30 29 27 18 19 17 12 11 14 15 8 0 354 339 321 297 276 220 206 218 226 183 191 212 209 196 192 187 196 197 189 188
29 28 25 21 22 18 20 18 18 10 3 359 359 341 326 313 270 242 205 209 200 187 199 205 208 197 197 193 194 192 187 186
22 29 24 27 24 24 22 21 16 15 5 357 357 351 340 326 286 247 221 198 200 201 204 204 199 199 192 192 193 186 187 183
2 20 23 20 20 23 24 19 17 8 4 2 3 358 351 347 342 341 185 200 198 198 196 203 201 194 188 193 191 186 183 188
13 18 26 22 18 23 20 16 15 13 7 4 8 8 358 356 354 349 338 207 212 214 204 203 198 192 189 197 194 186 191 191
18 21 16 19 17 19 14 12 9 8 12 11 10 7 3 0 358 4 358 358 289 211 222 223 210 195 192 194 189 187 190 196
16 16 15 13 17 18 13 12 11 5 11 16 14 5 9 9 5 12 11 17 3 2 268 222 213 203 198 192 188 194 196 197
11 13 11 14 12 10 12 13 7 7 13 12 8 11 14 14 11 15 17 15 26 20 13 13 14 34 338 232 181 193 194 196
12 10 6 10 6 2 22 9 6 14 13 10 9 7 12 15 14 15 19 18 20 26 30 20 14 2 356 351 283 188 193 200
11 6 4 3 2 7 13 20 17 16 15 8 8 8 8 9 16 19 17 17 21 20 27 19 22 360 9 10 349 80 77 55